Station GISL1 - 8761724 - Grand Isle, LA Image indicating link to RSS feed of recent meteorological observations for station GISL1


Conditions at GISL1 as of
(9:48 pm CST on 12/05/2023)
0348 GMT on 12/06/2023:
     

Click on the graph icon in the table below to see a time series plot of the last five days of that observation.

5-day plot - Wind Direction Wind Direction (WDIR): NW ( 310 deg true )
5-day plot - Wind Speed Wind Speed (WSPD): 8.9 kts
5-day plot - Wind Gust Wind Gust (GST): 9.9 kts
5-day plot - Atmospheric Pressure Atmospheric Pressure (PRES):30.25 in
5-day plot - Water Temperature Water Temperature (WTMP): 64.2 °F
5-day plot - Wind Speed at 10 Meters Wind Speed at 10 meters (WSPD10M): 9.7 kts
5-day plot - Wind Speed at 20 Meters Wind Speed at 20 meters (WSPD20M): 9.7 kts
5-day plot -  Wind Speed, Wind Gust and Atmospheric Pressure Combined plot of Wind Speed, Gust, and Air Pressure
NOS Water Level Observation Network Water Level
Previous observations
TIME
(CST)
5-day plot - Wind Direction
WDIR
 
5-day plot - Wind Speed
WSPD
kts
5-day plot - Wind Gust
GST
kts
5-day plot - Wave Height
WVHT
ft
5-day plot - Dominant Wave Period
DPD
sec
5-day plot - Average Wave Period
APD
sec
5-day plot - Mean Wave Direction
MWD
 
5-day plot - Atmospheric Pressure
PRES
in
5-day plot - Pressure Tendency
PTDY
in
5-day plot - Air Temperature
ATMP
°F
5-day plot - Water Temperature
WTMP
°F
5-day plot - Dew Point
DEWP
°F
5-day plot - Salinity
SAL
psu
5-day plot - Visibility
VIS
nmi
5-day plot - Tide (above MLLW)
TIDE
ft
2023-12-05 09:42 pm NW 8.0 8.9----30.25-- 64.2----
2023-12-05 09:36 pm NW 7.0 8.9----30.25-- 64.2----
2023-12-05 09:30 pm NW 8.9 9.9----30.25-- 64.2----
2023-12-05 09:24 pm NW 8.0 8.9----30.25-- 64.2----
2023-12-05 09:18 pm-------30.25-- 64.2----
2023-12-05 09:12 pm-------30.24-- 64.2----
2023-12-05 09:06 pm-------30.24-- 64.2----
2023-12-05 09:00 pm NW 7.0 8.9----30.25+0.04- 64.2----
2023-12-05 08:54 pm NW 8.0 9.9----30.25-- 64.0----
2023-12-05 08:48 pm NW 7.0 8.9----30.25- 60.1 64.2----
2023-12-05 08:42 pm NW 8.0 9.9----30.25- 60.4 64.2----
2023-12-05 08:36 pm NW 7.0 8.9----30.25- 60.3 64.4----
2023-12-05 08:30 pm NW 8.0 8.9----30.24- 60.3 64.2----
2023-12-05 08:24 pm NW 7.0 8.0----30.24- 60.1 64.2----
2023-12-05 08:18 pm NW 7.0 8.9----30.24- 60.1 64.2----
2023-12-05 08:12 pmNNW 8.0 8.9----30.24- 60.1 64.0----
2023-12-05 08:06 pmNNW 8.0 8.9----30.24- 60.3 64.0----
2023-12-05 08:00 pmNNW 8.0 9.9----30.24+0.04 60.3 64.0----
2023-12-05 07:54 pmNNW 8.9 11.1----30.24- 60.4 64.0----
2023-12-05 07:48 pmNNW 8.9 9.9----30.24- 60.4 64.2----
2023-12-05 07:42 pmNNW 8.9 11.1----30.24- 60.6 64.0----
2023-12-05 07:36 pm N 8.9 11.1----30.24- 60.6 64.0----
2023-12-05 07:30 pm N 9.9 11.1----30.23- 60.6 64.2----
2023-12-05 07:24 pm N 8.9 11.1----30.23- 60.6 64.2----
2023-12-05 07:18 pm N 7.0 9.9----30.23- 60.8 64.2----
2023-12-05 07:12 pmNNW 9.9 9.9----30.23- 61.0 64.2----
2023-12-05 07:06 pm N 8.0 9.9----30.24- 61.0 64.2----
2023-12-05 07:00 pm N 8.0 9.9----30.24+0.04 61.3 64.4----
2023-12-05 06:54 pm N 8.0 9.9----30.24- 61.3 64.4----
2023-12-05 06:48 pm N 8.9 9.9----30.23- 61.5 64.4----
2023-12-05 06:42 pm N 8.0 9.9----30.24- 61.5 64.4----
2023-12-05 06:36 pmNNW 8.9 11.1----30.23- 61.7 64.4----
2023-12-05 06:30 pmNNW 8.0 8.9----30.23- 61.5 64.6----
2023-12-05 06:24 pmNNW 7.0 8.9----30.22- 61.5 64.6----
2023-12-05 06:18 pmNNW 7.0 8.0----30.22- 61.7 64.0----
2023-12-05 06:12 pm N 7.0 8.0----30.22- 61.7 64.2----
2023-12-05 06:06 pm N 6.0 8.0----30.21- 61.7 64.0----
2023-12-05 06:00 pmNNW 7.0 8.0----30.21+0.02 61.7 64.0----
2023-12-05 05:54 pmNNW 7.0 9.9----30.21- 61.7 64.0----
2023-12-05 05:48 pmNNW 8.0 8.9----30.21- 61.5 64.2----
2023-12-05 05:42 pm NW 7.0 8.0----30.21- 61.7 64.2----
2023-12-05 05:36 pm NW 6.0 8.0----30.21- 61.7 64.4----
2023-12-05 05:30 pm NW 6.0 8.0------------
2023-12-05 05:24 pm NW 7.0 8.0------------
2023-12-05 05:18 pmNNW 6.0 8.0----30.20- 61.3 64.9----
2023-12-05 05:12 pm NW 6.0 8.0----30.20- 61.3 64.9----
2023-12-05 05:00 pm NW 5.1 8.0----30.20- 61.3 64.9----
2023-12-05 04:54 pmNNW 7.0 8.0----30.20- 61.2 64.9----
2023-12-05 04:48 pm NW 7.0 8.9----30.21-- 65.1----
2023-12-05 04:42 pm NW 8.0 8.9----30.20-- 65.1----
2023-12-05 04:36 pm NW 7.0 8.0----30.20-- 65.1----
2023-12-05 04:30 pm NW 7.0 8.0----30.20- 61.3 65.1----
2023-12-05 04:24 pmNNW 6.0 8.0----30.20- 61.3 65.1----
2023-12-05 04:18 pm NW 5.1 6.0----30.20- 61.3 65.1----
2023-12-05 04:12 pm NW 5.1 6.0----30.20- 61.3 65.1----
2023-12-05 04:06 pm NW 5.1 6.0----30.20- 61.3 65.1----
2023-12-05 04:00 pmNNW 5.1 6.0----30.19- 61.5 65.1----
2023-12-05 03:54 pm NW 5.1 7.0----30.19- 61.7 65.1----
2023-12-05 03:48 pm NW 5.1 7.0----30.20- 61.7 65.1----
2023-12-05 03:42 pm NW 6.0 7.0----30.20- 61.7 65.1----
2023-12-05 03:36 pmNNW 4.1 6.0----30.20- 61.7 65.1----
2023-12-05 03:30 pmNNW 5.1 7.0----30.20- 61.7 65.1----
2023-12-05 03:24 pm NW 5.1 7.0----30.19- 61.7 64.9----
2023-12-05 03:18 pmNNW 5.1 7.0----30.19- 61.5 64.9----
2023-12-05 03:12 pmNNW 5.1 7.0----30.19- 61.2 64.9----
2023-12-05 03:06 pm N 5.1 6.0----30.19- 61.0 64.9----
2023-12-05 03:00 pm N 4.1 5.1----30.19- 61.0 64.9----
2023-12-05 02:54 pm N 4.1 6.0----30.19- 61.2 64.9----
2023-12-05 02:48 pm N 4.1 5.1------ 61.3 64.9----
2023-12-05 02:42 pm N 4.1 5.1------ 61.5 64.9----
2023-12-05 02:36 pm N 5.1 6.0------ 61.9 64.9----
2023-12-05 02:30 pm N 5.1 6.0----30.18-- 64.9----
2023-12-05 02:24 pm N 5.1 6.0----30.18-- 64.9----
2023-12-05 02:18 pm N 1.9 2.9----30.18- 62.8 64.9----
2023-12-05 02:12 pm N 1.9 2.9----30.18- 63.3 64.8----
2023-12-05 02:06 pm- 0.0 4.1----30.18- 63.5 64.8----
2023-12-05 02:00 pm---------- 64.8----
2023-12-05 01:54 pm---------- 64.8----
2023-12-05 01:48 pm N 4.1 6.0----30.19-- 64.8----
2023-12-05 01:42 pm N 4.1 6.0----30.18-- 64.8----
2023-12-05 01:36 pmNNE 5.1 7.0----30.18-- 64.6----
2023-12-05 01:30 pm N 5.1 7.0----30.18-- 64.6----
2023-12-05 01:24 pm N 5.1 7.0----30.19-- 64.8----
2023-12-05 01:18 pm---------- 64.6----
2023-12-05 01:12 pm---------- 64.6----
2023-12-05 01:06 pm---------- 64.6----
2023-12-05 01:00 pm---------- 64.6----
2023-12-05 12:54 pm---------- 64.6----
2023-12-05 12:48 pm-------30.19- 62.1 64.6----
2023-12-05 12:42 pm-------30.20- 61.3 64.4----
2023-12-05 12:36 pm-------30.20- 61.5 64.4----
2023-12-05 12:30 pmNNE 4.1 8.0------------
2023-12-05 12:24 pmNNE 5.1 7.0------------
2023-12-05 12:18 pm---------- 64.4----
2023-12-05 12:12 pm---------- 64.4----
2023-12-05 12:06 pm---------- 64.4----
2023-12-05 12:00 pm---------- 64.4----
2023-12-05 11:54 am---------- 64.4----
2023-12-05 11:48 am-------30.23-------
2023-12-05 11:42 am-------30.23-------
2023-12-05 11:36 am-------30.24-------
2023-12-05 11:30 am-------30.24-------
2023-12-05 11:24 am-------30.24-------
2023-12-05 11:18 amNNE 6.0 8.0----30.24-- 64.4----
2023-12-05 11:12 amNNE 6.0 9.9----30.25-- 64.4----
2023-12-05 11:06 amNNE 6.0 8.9----30.25-- 64.4----
2023-12-05 11:00 am NE 5.1 8.0----30.25- 59.4 64.4----
2023-12-05 10:54 am NE 6.0 8.0----30.25- 59.2 64.4----
2023-12-05 10:48 amNNE 4.1 8.0----30.26-- 64.4----
2023-12-05 10:42 am NE 5.1 8.9----30.26-- 64.4----
2023-12-05 10:36 amNNE 7.0 9.9----30.26-- 64.4----
2023-12-05 10:30 amNNE 7.0 8.9----30.25-- 64.4----
2023-12-05 10:24 amNNE 6.0 8.9----30.25-- 64.4----
2023-12-05 10:18 am NE 6.0 8.9----30.26- 58.8 64.2----
2023-12-05 10:12 am NE 7.0 9.9----30.26- 59.0 64.2----
2023-12-05 10:06 am NE 5.1 8.9----30.26- 59.0 64.2----
2023-12-05 10:00 am NE 6.0 8.9----30.25+0.03 59.0 64.2----
2023-12-05 09:54 am NE 6.0 8.9----30.25- 59.0 64.2----
2023-12-05 09:48 am NE 6.0 11.1----30.26- 59.2 64.2----
2023-12-05 09:42 am NE 6.0 9.9----30.25- 59.4 64.2----
2023-12-05 09:36 am NE 7.0 9.9----30.26- 59.2 64.2----
2023-12-05 09:30 am NE 7.0 8.9----30.26- 58.6 64.2----
2023-12-05 09:24 am NE 7.0 9.9----30.26- 58.5 64.2----
2023-12-05 09:00 am NE 6.0 8.0----30.26- 58.1 64.2----
2023-12-05 07:00 am NE 7.0 9.9----30.23+0.04- 64.4----
2023-12-05 06:54 am NE 8.0 9.9----30.22-- 64.4----
2023-12-05 06:48 am-------30.22-------
2023-12-05 06:42 am-------30.22-------
2023-12-05 06:36 am-------30.21-------
2023-12-05 06:30 am-------30.21-------
2023-12-05 06:24 am-------30.21-------
2023-12-05 06:18 am NE 7.0 9.9----30.21- 56.8 64.4----
2023-12-05 06:12 am NE 7.0 11.1----30.21- 56.8 64.6----
2023-12-05 06:06 am NE 8.0 12.0----30.21- 56.8 64.8----
2023-12-05 06:00 am---------- 64.8----
2023-12-05 05:54 am---------- 64.8----
2023-12-05 05:48 am-------30.21-------
2023-12-05 05:42 am-------30.21-------
2023-12-05 05:36 am-------30.21-------
2023-12-05 05:30 am--------- 57.0 64.8----
2023-12-05 05:24 am--------- 57.0 64.8----
2023-12-05 05:18 am NE 6.0 8.0----30.20-- 64.8----
2023-12-05 05:12 am NE 6.0 8.9----30.20-- 64.9----
2023-12-05 05:06 amENE 7.0 8.9----30.19-- 64.9----
2023-12-05 05:00 amENE 7.0 8.9----30.19+0.03------
2023-12-05 04:54 amENE 6.0 9.9----30.19-------
2023-12-05 04:48 amENE 7.0 9.9----30.19- 56.7 64.9----
2023-12-05 04:42 amENE 8.9 11.1----30.19- 56.8 64.9----
2023-12-05 04:36 am NE 8.9 13.0----30.19- 57.0 64.9----
2023-12-05 04:30 am NE 9.9 13.0----30.19- 57.2 64.8----
2023-12-05 04:24 am NE 9.9 13.0----30.19- 57.4 64.9----
2023-12-05 04:18 am NE 8.9 14.0----30.19- 57.6 64.9----
2023-12-05 04:12 am NE 8.9 13.0----30.19- 57.7 65.1----
2023-12-05 04:06 am NE 8.9 13.0----30.19- 57.9 65.1----
2023-12-05 04:00 am NE 8.9 13.0----30.19+0.02 58.1 65.1----
2023-12-05 03:54 am NE 8.0 12.0----30.19- 58.1 65.1----
2023-12-05 03:48 am NE 8.0 13.0----30.19- 58.5 65.1----
2023-12-05 03:42 am NE 8.0 12.0----30.18- 58.5 65.1----
2023-12-05 03:36 am NE 8.0 13.0----30.18- 58.5 65.1----
2023-12-05 03:30 am NE 7.0 13.0----30.19- 58.5 65.1----
2023-12-05 03:24 am NE 8.9 12.0----30.18- 58.5 65.1----
2023-12-05 03:18 am NE 8.0 11.1----30.18- 58.5 65.1----
2023-12-05 03:12 amNNE 7.0 11.1----30.18- 58.5 65.1----
2023-12-05 03:06 amNNE 8.0 11.1----30.17- 58.5 65.1----
2023-12-05 03:00 amNNE 8.0 11.1----30.18+0.00 58.5 65.1----
2023-12-05 02:54 amNNE 8.0 11.1----30.18- 58.6 65.1----
2023-12-05 02:48 amNNE 7.0 12.0----30.17- 58.8 65.1----
2023-12-05 02:42 amNNE 8.0 11.1----30.17- 58.8 65.1----
2023-12-05 02:36 amNNE 8.0 11.1----30.17- 59.2 65.1----
2023-12-05 02:30 amNNE 8.0 12.0----30.17- 59.4 65.1----
2023-12-05 02:24 amNNE 7.0 9.9----30.17- 59.5 65.1----
2023-12-05 02:18 amNNE 8.0 11.1----30.17- 59.5 65.3----
2023-12-05 02:12 amNNE 8.0 12.0----30.17- 59.9 65.3----
2023-12-05 02:06 amNNE 8.9 11.1----30.16- 60.1 65.1----
2023-12-05 02:00 amNNE 9.9 12.0----30.16-0.01 60.4 65.1----
2023-12-05 01:54 amNNE 8.0 12.0----30.16- 60.3 65.3----
2023-12-05 01:48 amNNE 8.0 13.0----30.17- 60.4 65.3----
2023-12-05 01:42 amNNE 8.9 13.0----30.17- 60.8 65.5----
2023-12-05 01:36 am N 9.9 14.0----30.16- 61.0 65.5----
2023-12-05 01:30 am N 11.1 13.0----30.17- 61.2 65.5----
2023-12-05 01:24 am N 8.0 12.0----30.16- 61.3 65.7----
2023-12-05 01:18 amNNE 8.9 12.0----30.16- 61.5 65.7----
2023-12-05 01:12 am N 11.1 13.0----30.16- 61.3 66.0----
2023-12-05 01:06 am N 9.9 12.0----30.16- 61.5 66.0----
2023-12-05 01:00 am N 8.9 12.0----30.16+0.00- 66.0----
2023-12-05 12:54 am N 8.9 12.0----30.16-- 66.2----
2023-12-05 12:48 am N 8.9 13.0----30.17- 61.9 66.2----
2023-12-05 12:42 am N 8.9 13.0----30.17- 62.1 66.4----
2023-12-05 12:36 am N 9.9 13.0----30.17- 62.2 66.4----
2023-12-05 12:30 am N 8.0 11.1----30.17- 61.9 66.4----
2023-12-05 12:24 am N 9.9 11.1----30.17- 62.1 66.4----
2023-12-05 12:18 am N 8.0 11.1----30.17- 62.2 66.4----
2023-12-05 12:12 am N 8.0 9.9----30.18- 62.2 66.4----
2023-12-05 12:06 am N 8.9 11.1----30.18- 62.4 66.4----
2023-12-05 12:00 amNNW 8.9 9.9----30.18+0.01 62.2 66.4----
2023-12-04 11:54 pmNNW 8.9 9.9----30.18- 62.2 66.4----
2023-12-04 11:48 pmNNW 8.0 9.9----30.18- 62.1 66.4----
2023-12-04 11:42 pmNNW 8.0 8.9----30.18- 62.4 66.4----
2023-12-04 11:36 pmNNW 7.0 8.9----30.18- 61.9 66.4----
2023-12-04 11:30 pmNNW 6.0 8.0----30.18-- 66.4----
2023-12-04 11:24 pmNNW 6.0 7.0----30.17-- 66.4----
2023-12-04 11:18 pmNNW 6.0 7.0----30.17- 62.2 66.4----
2023-12-04 11:12 pmNNW 6.0 7.0----30.18- 62.2 66.4----
2023-12-04 11:06 pmNNW 6.0 8.9----30.18- 62.2 66.4----
2023-12-04 11:00 pmNNW 6.0 7.0----30.18+0.02- 66.4----
2023-12-04 10:54 pmNNW 7.0 8.0----30.17-- 66.4----
2023-12-04 10:48 pm-------30.17- 62.8 66.4----
2023-12-04 10:42 pm-------30.18- 62.6 66.4----
2023-12-04 10:36 pm-------30.17- 62.6 66.4----
2023-12-04 10:30 pm--------- 62.6-----
2023-12-04 10:24 pm--------- 63.0-----
2023-12-04 10:18 pm--------- 63.0 66.4----
2023-12-04 10:12 pm--------- 63.1 66.4----
2023-12-04 10:06 pm--------- 63.1 66.2----
2023-12-04 10:00 pm N 5.1 6.0----30.17+0.04 63.0 66.2----
2023-12-04 09:54 pm N 5.1 7.0----30.17- 63.0 66.2----